This is the latest recevied weather packets stored in our database for station/object N3AVN. If no packets are shown the sender has not sent any weather packets the latest 10 day(s).
| Time | Temp. | Humidity | Pressure | Rain* | Wind** | Luminosity | Snow |
|---|---|---|---|---|---|---|---|
| 1777594536 | 11.11° C | 90% | 1006.1 hPa | 0 mm | - | 0 W/m² | - |
| 1777594232 | 11.11° C | 89% | 1006.3 hPa | 0 mm | - | 0 W/m² | - |
| 1777593928 | 11.11° C | 88% | 1006 hPa | 0 mm | - | 0 W/m² | - |
| 1777593625 | 11.11° C | 86% | 1006.2 hPa | 0 mm | - | 0 W/m² | - |
| 1777593320 | 11.67° C | 86% | 1005.8 hPa | 0 mm | - | 0 W/m² | - |
| 1777593015 | 11.67° C | 86% | 1005.7 hPa | 0 mm | - | 0 W/m² | - |
| 1777592709 | 11.67° C | 86% | 1005.9 hPa | 0 mm | - | 0 W/m² | - |
| 1777592405 | 12.22° C | 86% | 1005.9 hPa | 0 mm | - | 1 W/m² | - |
| 1777592095 | 12.22° C | 85% | 1005.8 hPa | 0 mm | - | 1 W/m² | - |
| 1777591793 | 12.22° C | 85% | 1006 hPa | 0 mm | - | 4 W/m² | - |
| 1777591488 | 12.78° C | 86% | 1005.8 hPa | 0 mm | - | 9 W/m² | - |
| 1777591184 | 12.78° C | 85% | 1005.8 hPa | 0 mm | - | 20 W/m² | - |
| 1777590879 | 12.78° C | 85% | 1005.8 hPa | 0 mm | - | 26 W/m² | - |
| 1777590576 | 12.78° C | 84% | 1005.7 hPa | 0 mm | - | 21 W/m² | - |
| 1777590272 | 12.78° C | 84% | 1005.4 hPa | 0 mm | - | 12 W/m² | - |
| 1777589970 | 12.78° C | 85% | 1005.6 hPa | 0 mm | - | 11 W/m² | - |
| 1777589666 | 12.78° C | 84% | 1005.5 hPa | 0 mm | - | 23 W/m² | - |
| 1777589364 | 13.33° C | 88% | 1005.2 hPa | 0 mm | - | 35 W/m² | - |
| 1777589061 | 12.78° C | 88% | 1005.3 hPa | 0 mm | - | 38 W/m² | - |
| 1777588756 | 13.33° C | 88% | 1005.4 hPa | 0 mm | - | 29 W/m² | - |
| 1777588452 | 13.33° C | 88% | 1005.2 hPa | 0 mm | - | 28 W/m² | - |
| 1777588147 | 13.33° C | 88% | 1005.1 hPa | 0 mm | - | 29 W/m² | - |
| 1777587844 | 13.33° C | 86% | 1005.1 hPa | 0 mm | - | 38 W/m² | - |
| 1777587543 | 13.33° C | 88% | 1004.9 hPa | 0 mm | - | 39 W/m² | - |
| 1777587239 | 13.33° C | 90% | 1004.9 hPa | 0 mm | - | 44 W/m² | - |
* Rain latest hour (hover to see other rain measurements)
** Current wind speed in m/s (hover to see current wind gust speed)